TimeCST,TemperatureF,Dew PointF,Humidity,Sea Level PressureIn,VisibilityMPH,Wind Direction,Wind SpeedMPH,Gust SpeedMPH,PrecipitationIn,Events,Conditions,WindDirDegrees,DateUTC
12:15 AM,37.4,21.2,52,29.78,10.0,SW,13.8,19.6,N/A,,Partly Cloudy,220,2011-11-07 06:15:00
12:35 AM,37.4,21.2,52,29.78,10.0,SSW,10.4,19.6,N/A,,Clear,210,2011-11-07 06:35:00
12:55 AM,35.6,21.2,56,29.79,10.0,SW,10.4,23.0,N/A,,Clear,230,2011-11-07 06:55:00
1:15 AM,35.6,21.2,56,29.79,10.0,SW,10.4,-,N/A,,Clear,230,2011-11-07 07:15:00
1:35 AM,35.6,19.4,52,29.79,10.0,SW,12.7,19.6,N/A,,Clear,230,2011-11-07 07:35:00
1:55 AM,35.6,19.4,52,29.80,10.0,SW,13.8,24.2,N/A,,Scattered Clouds,230,2011-11-07 07:55:00
2:15 AM,35.6,21.2,56,29.80,10.0,SW,13.8,19.6,N/A,,Overcast,230,2011-11-07 08:15:00
2:35 AM,35.6,19.4,52,29.80,10.0,SW,16.1,21.9,N/A,,Overcast,230,2011-11-07 08:35:00
2:55 AM,35.6,19.4,52,29.80,10.0,SW,13.8,20.7,N/A,,Overcast,220,2011-11-07 08:55:00
3:15 AM,35.6,19.4,52,29.80,10.0,WSW,10.4,23.0,N/A,,Overcast,240,2011-11-07 09:15:00
3:35 AM,35.6,19.4,52,29.80,10.0,SW,16.1,26.5,N/A,,Overcast,220,2011-11-07 09:35:00
3:55 AM,35.6,19.4,52,29.81,10.0,SW,10.4,25.3,N/A,,Overcast,230,2011-11-07 09:55:00
4:15 AM,35.6,19.4,52,29.82,10.0,WSW,17.3,29.9,N/A,,Overcast,250,2011-11-07 10:15:00
4:35 AM,35.6,19.4,52,29.83,10.0,WSW,17.3,32.2,N/A,,Overcast,240,2011-11-07 10:35:00
4:55 AM,35.6,19.4,52,29.83,10.0,West,19.6,29.9,N/A,,Overcast,260,2011-11-07 10:55:00
5:15 AM,35.6,19.4,52,29.84,10.0,WSW,11.5,27.6,N/A,,Overcast,250,2011-11-07 11:15:00
5:35 AM,35.6,19.4,52,29.85,10.0,WSW,18.4,26.5,N/A,,Overcast,250,2011-11-07 11:35:00
5:55 AM,35.6,21.2,56,29.87,10.0,WSW,17.3,27.6,N/A,,Overcast,250,2011-11-07 11:55:00
6:15 AM,35.6,21.2,56,29.87,10.0,West,16.1,25.3,N/A,,Overcast,260,2011-11-07 12:15:00
6:35 AM,35.6,21.2,56,29.89,10.0,West,15.0,24.2,N/A,,Overcast,260,2011-11-07 12:35:00
6:55 AM,35.6,19.4,52,29.90,10.0,West,15.0,27.6,N/A,,Overcast,270,2011-11-07 12:55:00
7:15 AM,35.6,19.4,52,29.91,10.0,West,10.4,26.5,N/A,,Overcast,260,2011-11-07 13:15:00
7:35 AM,35.6,21.2,56,29.92,10.0,West,15.0,26.5,N/A,,Overcast,260,2011-11-07 13:35:00
7:55 AM,35.6,21.2,56,29.93,10.0,West,16.1,21.9,N/A,,Overcast,270,2011-11-07 13:55:00
8:15 AM,35.6,21.2,56,29.94,10.0,West,16.1,29.9,N/A,,Overcast,270,2011-11-07 14:15:00
8:35 AM,35.6,21.2,56,29.96,10.0,West,13.8,23.0,N/A,,Overcast,270,2011-11-07 14:35:00
8:55 AM,35.6,21.2,56,29.97,10.0,West,10.4,-,N/A,,Overcast,280,2011-11-07 14:55:00
9:15 AM,35.6,21.2,56,29.98,10.0,West,13.8,26.5,N/A,,Overcast,270,2011-11-07 15:15:00
9:35 AM,35.6,21.2,56,29.99,10.0,West,11.5,23.0,N/A,,Overcast,280,2011-11-07 15:35:00
9:55 AM,37.4,21.2,52,29.99,10.0,WNW,15.0,20.7,N/A,,Overcast,290,2011-11-07 15:55:00
10:15 AM,37.4,21.2,52,30.01,10.0,West,11.5,23.0,N/A,,Overcast,270,2011-11-07 16:15:00
10:35 AM,37.4,21.2,52,30.02,10.0,West,11.5,23.0,N/A,,Overcast,260,2011-11-07 16:35:00
10:55 AM,37.4,21.2,52,30.04,10.0,WSW,13.8,24.2,N/A,,Overcast,250,2011-11-07 16:55:00
11:15 AM,37.4,21.2,52,30.05,10.0,WSW,12.7,23.0,N/A,,Overcast,250,2011-11-07 17:15:00
11:35 AM,37.4,23.0,56,30.06,10.0,West,10.4,18.4,N/A,,Overcast,280,2011-11-07 17:35:00
11:55 AM,37.4,24.8,60,30.06,10.0,West,13.8,20.7,N/A,,Overcast,270,2011-11-07 17:55:00
12:15 PM,37.4,23.0,56,30.07,10.0,WSW,13.8,19.6,N/A,,Overcast,250,2011-11-07 18:15:00
12:35 PM,39.2,24.8,56,30.07,10.0,West,15.0,19.6,N/A,,Overcast,270,2011-11-07 18:35:00
12:55 PM,39.2,23.0,52,30.07,10.0,West,13.8,23.0,N/A,,Overcast,270,2011-11-07 18:55:00
1:15 PM,39.2,24.8,56,30.08,10.0,West,13.8,20.7,N/A,,Overcast,280,2011-11-07 19:15:00
1:35 PM,39.2,24.8,56,30.08,10.0,WSW,12.7,16.1,N/A,,Overcast,250,2011-11-07 19:35:00
1:55 PM,41.0,24.8,53,30.08,10.0,West,11.5,19.6,N/A,,Overcast,270,2011-11-07 19:55:00
2:15 PM,39.2,23.0,52,30.08,10.0,WNW,11.5,-,N/A,,Mostly Cloudy,290,2011-11-07 20:15:00
2:35 PM,39.2,24.8,56,30.08,10.0,West,12.7,19.6,N/A,,Scattered Clouds,260,2011-11-07 20:35:00
2:55 PM,39.2,24.8,56,30.09,10.0,WNW,13.8,18.4,N/A,,Mostly Cloudy,300,2011-11-07 20:55:00
3:15 PM,39.2,24.8,56,30.09,10.0,WNW,11.5,19.6,N/A,,Mostly Cloudy,290,2011-11-07 21:15:00
3:35 PM,37.4,23.0,56,30.11,10.0,West,11.5,17.3,N/A,,Mostly Cloudy,270,2011-11-07 21:35:00
3:55 PM,37.4,23.0,56,30.12,10.0,West,11.5,19.6,N/A,,Mostly Cloudy,280,2011-11-07 21:55:00
4:15 PM,37.4,23.0,56,30.13,10.0,West,11.5,17.3,N/A,,Overcast,260,2011-11-07 22:15:00
4:35 PM,37.4,23.0,56,30.14,10.0,WNW,9.2,-,N/A,,Overcast,290,2011-11-07 22:35:00
4:55 PM,37.4,23.0,56,30.14,10.0,West,6.9,-,N/A,,Overcast,280,2011-11-07 22:55:00
5:15 PM,37.4,23.0,56,30.15,10.0,West,8.1,-,N/A,,Overcast,280,2011-11-07 23:15:00
5:35 PM,37.4,23.0,56,30.15,10.0,WNW,9.2,-,N/A,,Mostly Cloudy,290,2011-11-07 23:35:00
5:55 PM,35.6,23.0,60,30.16,10.0,West,5.8,-,N/A,,Partly Cloudy,280,2011-11-07 23:55:00
6:15 PM,35.6,23.0,60,30.16,10.0,WNW,4.6,-,N/A,,Clear,300,2011-11-08 00:15:00
6:35 PM,35.6,23.0,60,30.16,10.0,West,3.5,-,N/A,,Clear,270,2011-11-08 00:35:00
6:55 PM,35.6,23.0,60,30.17,10.0,Calm,Calm,-,N/A,,Clear,0,2011-11-08 00:55:00
7:15 PM,30.2,19.4,64,30.17,10.0,South,3.5,-,N/A,,Clear,170,2011-11-08 01:15:00
7:35 PM,28.4,19.4,69,30.17,10.0,South,4.6,-,N/A,,Clear,180,2011-11-08 01:35:00
7:55 PM,28.4,19.4,69,30.18,10.0,South,3.5,-,N/A,,Clear,190,2011-11-08 01:55:00
8:15 PM,26.6,19.4,74,30.18,10.0,South,4.6,-,N/A,,Clear,190,2011-11-08 02:15:00
8:35 PM,26.6,19.4,74,30.18,10.0,South,3.5,-,N/A,,Clear,190,2011-11-08 02:35:00
8:55 PM,26.6,19.4,74,30.18,10.0,SSW,3.5,-,N/A,,Clear,200,2011-11-08 02:55:00
9:15 PM,26.6,19.4,74,30.17,10.0,SSW,3.5,-,N/A,,Clear,200,2011-11-08 03:15:00
9:35 PM,24.8,19.4,80,30.17,10.0,South,4.6,-,N/A,,Clear,180,2011-11-08 03:35:00
9:55 PM,24.8,17.6,74,30.18,10.0,SSW,3.5,-,N/A,,Clear,210,2011-11-08 03:55:00
10:15 PM,24.8,17.6,74,30.16,10.0,WSW,3.5,-,N/A,,Clear,240,2011-11-08 04:15:00
10:35 PM,24.8,17.6,74,30.17,10.0,South,3.5,-,N/A,,Clear,190,2011-11-08 04:35:00
10:55 PM,24.8,19.4,80,30.17,10.0,Calm,Calm,-,N/A,,Clear,0,2011-11-08 04:55:00
11:15 PM,24.8,19.4,80,30.16,10.0,Calm,Calm,-,N/A,,Clear,0,2011-11-08 05:15:00
11:35 PM,23.0,17.6,80,30.17,10.0,Calm,Calm,-,N/A,,Clear,0,2011-11-08 05:35:00
11:55 PM,23.0,17.6,80,30.17,10.0,SSE,3.5,-,N/A,,Clear,160,2011-11-08 05:55:00